Project,Study,Ord_Occ,Event_Num,Cast_ID,Date_Time_UTC,Date_Time_PST,Lat_Dec,Lon_Dec,Sta_ID,Line,Sta,Depth,Pressure,PrQ,Temp1,Temp1Q,Temp2,Temp2Q,TempAve,Salt1,Salt1Q,Salt1_Corr,Salt2,Salt2Q,Salt2_Corr,SaltAve_Corr,Ox1,Ox1Q,Ox1_CruiseCorr,Ox1_StaCorr,Ox2,Ox2Q,Ox2_CruiseCorr,Ox2_StaCorr,OxAve_StaCorr,Ox1uM,Ox1uM_CruiseCorr,Ox1uM_StaCorr,Ox2uM,Ox2uM_CruiseCorr,Ox2uM_StaCorr,OxAveuM_StaCorr,FluorV,FluorQ,EstChl_CruiseCorr,EstChl_StaCorr,ISUSV,ISUSQ,EstNO3_CruiseCorr,EstNO3_StaCorr,SigThetaTS1,SigThetaTS1Q,SigThetaTS2,SigThetaTS2Q,BAT,XMiss,TransQ,pH,pHQ,SPAR,SPARQ,PAR,PARQ,PoT1,PoT2,DynHt,SVA,OxSat1,OxSat2,BTL_Depth,BTL_Temp,SaltB,OxB,OxBuM,Chl-a,Phaeo,NO3,NO2,NH4,PO4,SIL
CalCOFI,2105SH,003,,2105_003d,04-May-2021 23:16:58,04-May-2021 15:16:58,32.84756,-117.53160,093.3 030.0,093.3,030.0,2.000,2.014,,17.5122,,17.5802,,17.5462,33.4818,,33.4830,33.4867,,33.4886,33.4858,5.5259,,5.8451,5.8402,5.5780,,5.8371,5.8351,5.8377,240.947,254.3848,194.5951,243.225,265.3519,194.2538,194.4245,0.0491,,0.1438,0.4399,2.6689,,1.4584,,24.2276,,24.2151,,,,,,,,,,,17.5119,17.5799,0.0028,368.410,101.005,102.095,2,17.120,,5.848,254.83,0.462,0.065,0.29,0.00,0.00,0.29,1.80
CalCOFI,2105SH,003,,2105_003d,04-May-2021 23:17:07,04-May-2021 15:17:07,32.84756,-117.53160,093.3 030.0,093.3,030.0,3.000,3.021,,17.5058,,17.5041,,17.5050,33.4957,,33.4969,33.4800,,33.4819,33.4894,5.4715,,5.7882,5.7835,5.5542,,5.8124,5.8105,5.7970,238.576,251.9062,192.9090,242.182,262.7912,193.5203,193.2147,0.0480,,0.1357,0.4341,2.6674,,1.4584,,24.2398,,24.2282,,,,,,,,,,,17.5053,17.5036,0.0091,367.282,100.008,101.506,,,,,,,,,,,,
CalCOFI,2105SH,003,,2105_003d,04-May-2021 23:17:09,04-May-2021 15:17:09,32.84755,-117.53160,093.3 030.0,093.3,030.0,4.000,4.028,,16.9118,,16.8960,,16.9039,33.4929,,33.4941,33.4782,,33.4801,33.4871,5.5554,,5.8759,5.8710,5.6252,,5.8860,5.8839,5.8775,242.202,255.6968,195.4876,245.244,266.7073,195.6736,195.5806,0.0447,,0.1111,0.4169,2.6653,,1.4584,,24.3785,,24.3710,,,,,,,,,,,16.9112,16.8954,0.0128,354.095,100.387,101.608,,,,,,,,,,,,
CalCOFI,2105SH,003,,2105_003d,04-May-2021 23:17:12,04-May-2021 15:17:12,32.84754,-117.53159,093.3 030.0,093.3,030.0,5.000,5.035,,16.7490,,16.7480,,16.7485,33.4849,,33.4861,33.4782,,33.4801,33.4831,5.5593,,5.8800,5.8750,5.6401,,5.9014,5.8993,5.8872,242.364,255.8661,195.6028,245.888,266.8823,196.1264,195.8646,0.0451,,0.1141,0.4190,2.6633,,1.4584,,24.4106,,24.4057,,,,,,,,,,,16.7482,16.7472,0.0163,351.068,100.138,101.587,,,,,,,,,,,,
CalCOFI,2105SH,003,,2105_003d,04-May-2021 23:17:13,04-May-2021 15:17:13,32.84754,-117.53158,093.3 030.0,093.3,030.0,6.000,6.043,,16.6953,,16.6934,,16.6944,33.4824,,33.4836,33.4755,,33.4774,33.4805,5.5743,,5.8957,5.8907,5.6615,,5.9236,5.9214,5.9061,243.012,256.5435,196.0636,246.817,267.5821,196.7797,196.4217,0.0477,,0.1334,0.4326,2.6633,,1.4584,,24.4212,,24.4164,,,,,,,,,,,16.6943,16.6924,0.0198,350.089,100.301,101.863,,,,,,,,,,,,
CalCOFI,2105SH,003,,2105_003d,04-May-2021 23:17:15,04-May-2021 15:17:15,32.84754,-117.53158,093.3 030.0,093.3,030.0,7.000,7.050,,16.6050,,16.6003,,16.6027,33.4742,,33.4754,33.4662,,33.4681,33.4718,5.6201,,5.9436,5.9384,5.6868,,5.9498,5.9476,5.9430,245.006,258.6281,197.4816,247.915,269.7357,197.5518,197.5167,0.0494,,0.1460,0.4415,2.6655,,1.4584,,24.4359,,24.4309,,,,,,,,,,,16.6039,16.5992,0.0234,348.724,100.943,102.127,,,,,,,,,,,,
CalCOFI,2105SH,003,,2105_003d,04-May-2021 23:17:17,04-May-2021 15:17:17,32.84754,-117.53158,093.3 030.0,093.3,030.0,8.000,8.057,,16.5257,,16.5219,,16.5238,33.4712,,33.4724,33.4632,,33.4651,33.4688,5.6425,,5.9670,5.9618,5.7407,,6.0056,6.0033,5.9826,245.979,259.6452,198.1736,250.262,270.7865,199.2022,198.6879,0.0528,,0.1712,0.4592,2.6725,,1.4584,,24.4520,,24.4467,,,,,,,,,,,16.5244,16.5206,0.0269,347.219,101.188,102.936,,,,,,,,,,,,
CalCOFI,2105SH,003,,2105_003d,04-May-2021 23:17:18,04-May-2021 15:17:18,32.84754,-117.53158,093.3 030.0,093.3,030.0,9.000,9.064,,16.4222,,16.4204,,16.4213,33.4734,,33.4746,33.4673,,33.4692,33.4719,5.7949,,6.1264,6.1207,5.9147,,6.1858,6.1832,6.1520,252.619,266.5867,202.8955,257.839,277.9577,204.5304,203.7130,0.0785,,0.3598,0.5936,2.6820,,1.4584,,24.4775,,24.4733,,,,,,,,,,,16.4208,16.4190,0.0304,344.820,103.714,105.850,,,,,,,,,,,,
CalCOFI,2105SH,003,,2105_003d,04-May-2021 23:17:20,04-May-2021 15:17:20,32.84754,-117.53158,093.3 030.0,093.3,030.0,10.000,10.071,,16.1433,,16.1293,,16.1363,33.4800,,33.4812,33.4446,,33.4465,33.4639,5.9419,,6.2801,6.2740,6.0085,,6.2830,6.2802,6.2771,259.008,273.2658,207.4389,261.916,284.8579,207.3974,207.4182,0.1258,,0.6987,0.8408,2.6917,,1.4584,,24.5463,,24.5223,,,,,,,,,,,16.1417,16.1278,0.0338,338.297,105.769,106.903,10,15.000,,,284.09,3.218,0.226,0.41,0.035,0.00,0.33,1.24
CalCOFI,2105SH,003,,2105_003d,04-May-2021 23:17:21,04-May-2021 15:17:21,32.84754,-117.53158,093.3 030.0,093.3,030.0,11.000,11.078,,15.7414,,15.7388,,15.7401,33.4485,,33.4497,33.4299,,33.4318,33.4408,6.0137,,6.3552,6.3489,6.1059,,6.3839,6.3809,6.3649,262.120,276.5190,209.6519,266.143,288.2188,210.3698,210.0109,0.1152,,0.6237,0.7854,2.7042,,1.4584,,24.6130,,24.5992,,,,,,,,,,,15.7397,15.7371,0.0372,331.973,106.188,107.798,,,,,,,,,,,,
CalCOFI,2105SH,003,,2105_003d,04-May-2021 23:17:23,04-May-2021 15:17:23,32.84754,-117.53158,093.3 030.0,093.3,030.0,12.000,12.085,,15.6265,,15.6258,,15.6262,33.4441,,33.4453,33.4334,,33.4353,33.4403,6.1268,,6.4735,6.4669,6.1877,,6.4686,6.4655,6.4662,267.046,281.6687,213.1550,269.701,293.5389,212.8718,213.0134,0.0945,,0.4757,0.6772,2.7209,,1.4584,,24.6353,,24.6272,,,,,,,,,,,15.6246,15.6240,0.0405,329.874,107.938,109.002,,,,,,,,,,,,
CalCOFI,2105SH,003,,2105_003d,04-May-2021 23:17:25,04-May-2021 15:17:25,32.84754,-117.53158,093.3 030.0,093.3,030.0,13.000,13.093,,15.4277,,15.4257,,15.4267,33.4602,,33.4614,33.4412,,33.4431,33.4523,6.0737,,6.4180,6.4115,6.1171,,6.3955,6.3925,6.4020,264.714,279.2308,211.4966,266.610,291.0204,210.6982,211.0974,0.0831,,0.3933,0.6176,2.7352,,1.4584,,24.6917,,24.6776,,,,,,,,,,,15.4258,15.4237,0.0439,324.525,106.593,107.337,,,,,,,,,,,,
CalCOFI,2105SH,003,,2105_003d,04-May-2021 23:17:26,04-May-2021 15:17:26,32.84754,-117.53158,093.3 030.0,093.3,030.0,14.000,14.100,,15.2880,,15.2868,,15.2874,33.4649,,33.4661,33.4547,,33.4566,33.4614,6.0554,,6.3988,6.3924,6.1481,,6.4276,6.4245,6.4085,263.909,278.3893,210.9241,267.950,290.1510,211.6405,211.2823,0.0811,,0.3787,0.6072,2.7481,,1.4584,,24.7262,,24.7186,,,,,,,,,,,15.2858,15.2847,0.0471,321.270,105.981,107.594,,,,,,,,,,,,
CalCOFI,2105SH,003,,2105_003d,04-May-2021 23:17:28,04-May-2021 15:17:28,32.84754,-117.53158,093.3 030.0,093.3,030.0,15.000,15.107,,15.0760,,15.0761,,15.0761,33.4860,,33.4872,33.4713,,33.4732,33.4802,6.1021,,6.4477,6.4411,6.1909,,6.4719,6.4688,6.4550,265.928,280.4999,212.3599,269.799,292.3315,212.9407,212.6503,0.0893,,0.4382,0.6500,2.7644,,1.4584,,24.7888,,24.7775,,,,,,,,,,,15.0738,15.0739,0.0503,315.333,106.363,107.900,,,,,,,,,,,,
CalCOFI,2105SH,003,,2105_003d,04-May-2021 23:17:30,04-May-2021 15:17:30,32.84754,-117.53158,093.3 030.0,093.3,030.0,16.000,16.114,,14.9610,,14.9594,,14.9602,33.4878,,33.4890,33.4744,,33.4763,33.4827,6.1724,,6.5212,6.5144,6.2491,,6.5322,6.5290,6.5217,268.986,283.6968,214.5345,272.328,295.6341,214.7191,214.6268,0.0953,,0.4814,0.6814,2.7798,,1.4584,,24.8152,,24.8053,,,,,,,,,,,14.9586,14.9570,0.0534,312.847,107.344,108.664,,,,,,,,,,,,
CalCOFI,2105SH,003,,2105_003d,04-May-2021 23:17:31,04-May-2021 15:17:31,32.84754,-117.53158,093.3 030.0,093.3,030.0,17.000,17.121,,14.8434,,14.8432,,14.8433,33.5049,,33.5061,33.4938,,33.4957,33.5009,6.2366,,6.5883,6.5814,6.3304,,6.6164,6.6130,6.5972,271.770,286.6072,216.5143,275.863,298.6409,217.2050,216.8597,0.1124,,0.6038,0.7707,2.7910,,1.4584,,24.8539,,24.8453,,,,,,,,,,,14.8408,14.8407,0.0566,309.197,108.215,109.836,,,,,,,,,,,,
CalCOFI,2105SH,003,,2105_003d,04-May-2021 23:17:33,04-May-2021 15:17:33,32.84754,-117.53156,093.3 030.0,093.3,030.0,18.000,18.128,,14.7494,,14.7489,,14.7492,33.5191,,33.5203,33.5084,,33.5103,33.5153,6.3577,,6.7150,6.7077,6.4418,,6.7318,6.7282,6.7180,277.042,292.1185,220.2634,280.710,304.3346,220.6134,220.4384,0.1441,,0.8269,0.9364,2.8029,,1.4584,,24.8851,,24.8769,,,,,,,,,,,14.7467,14.7462,0.0597,306.254,110.120,111.569,,,,,,,,,,,,
CalCOFI,2105SH,003,,2105_003d,04-May-2021 23:17:35,04-May-2021 15:17:35,32.84754,-117.53156,093.3 030.0,093.3,030.0,19.000,19.136,,14.5674,,14.5664,,14.5669,33.5429,,33.5441,33.5327,,33.5346,33.5394,6.4101,,6.7698,6.7623,6.4657,,6.7566,6.7529,6.7576,279.306,294.4853,221.8734,281.733,306.7798,221.3328,221.6031,0.1829,,1.0935,1.1392,2.8155,,1.4584,,24.9424,,24.9348,,,,,,,,,,,14.5646,14.5636,0.0627,300.822,110.639,111.590,,,,,,,,,,,,
CalCOFI,2105SH,003,,2105_003d,04-May-2021 23:17:36,04-May-2021 15:17:36,32.84754,-117.53156,093.3 030.0,093.3,030.0,20.000,20.143,,14.4519,,14.4503,,14.4511,33.5524,,33.5536,33.5379,,33.5398,33.5467,6.4188,,6.7789,6.7714,6.4847,,6.7763,6.7726,6.7720,279.677,294.8731,222.1373,282.554,307.1804,221.9101,222.0237,0.2201,,1.3422,1.3337,2.8225,,1.4584,,24.9743,,24.9634,,,,,,,,,,,14.4489,14.4474,0.0658,297.810,110.538,111.661,,,,,,,,,,,,
CalCOFI,2105SH,003,,2105_003d,04-May-2021 23:17:38,04-May-2021 15:17:38,32.84754,-117.53156,093.3 030.0,093.3,030.0,21.000,21.150,,14.2575,,14.2566,,14.2571,33.5622,,33.5634,33.5477,,33.5496,33.5565,6.3604,,6.7178,6.7105,6.4381,,6.7280,6.7244,6.7175,277.119,292.1990,220.3182,280.508,304.4178,220.4714,220.3948,0.3401,,2.0995,1.9609,2.8271,,1.4584,,25.0229,,25.0118,,,,,,,,,,,14.2545,14.2536,0.0687,293.208,109.111,110.433,,,,,,,,,,,,
CalCOFI,2105SH,003,,2105_003d,04-May-2021 23:17:40,04-May-2021 15:17:40,32.84754,-117.53156,093.3 030.0,093.3,030.0,22.000,22.157,,14.0890,,14.0887,,14.0889,33.5627,,33.5639,33.5475,,33.5494,33.5567,6.3114,,6.6666,6.6594,6.3701,,6.6575,6.6541,6.6568,274.976,289.9587,218.7942,277.539,302.1033,218.3835,218.5889,0.3354,,2.0712,1.9363,2.8303,,1.4584,,25.0586,,25.0469,,,,,,,,,,,14.0859,14.0855,0.0717,289.837,107.903,108.897,,,,,,,,,,,,
CalCOFI,2105SH,003,,2105_003d,04-May-2021 23:17:42,04-May-2021 15:17:42,32.84754,-117.53156,093.3 030.0,093.3,030.0,23.000,23.164,,13.8612,,13.8598,,13.8605,33.5590,,33.5602,33.5419,,33.5438,33.5520,6.3708,,6.7287,6.7213,6.4202,,6.7094,6.7059,6.7136,277.554,292.6538,220.6275,279.707,304.8876,219.9081,220.2678,0.4033,,2.4706,2.2912,2.8291,,1.4584,,25.1030,,25.0901,,,,,,,,,,,13.8579,13.8566,0.0746,285.625,108.414,109.239,,,,,,,,,,,,
CalCOFI,2105SH,003,,2105_003d,04-May-2021 23:17:44,04-May-2021 15:17:44,32.84754,-117.53156,093.3 030.0,093.3,030.0,24.000,24.172,,13.7927,,13.7931,,13.7929,33.5963,,33.5975,33.5981,,33.6000,33.5988,6.2825,,6.6363,6.6292,6.3214,,6.6071,6.6037,6.6165,273.697,288.6216,217.8847,275.390,300.7220,216.8724,217.3786,0.3234,,1.9983,1.8736,2.8200,,1.4584,,25.1460,,25.1473,,,,,,,,,,,13.7893,13.7897,0.0774,281.561,106.787,107.450,,,,,,,,,,,,
CalCOFI,2105SH,003,,2105_003d,04-May-2021 23:17:46,04-May-2021 15:17:46,32.84754,-117.53156,093.3 030.0,093.3,030.0,25.000,25.179,,13.8469,,13.8470,,13.8470,33.6790,,33.6802,33.6726,,33.6745,33.6774,6.1478,,6.4955,6.4888,6.1751,,6.4556,6.4525,6.4707,267.813,282.4705,213.7004,269.003,294.3673,212.3810,213.0407,0.3843,,2.3611,2.1919,2.8006,,1.4584,,25.1988,,25.1938,,,,,,,,,,,13.8433,13.8434,0.0802,276.574,104.667,105.128,,,,,,,,,,,,
CalCOFI,2105SH,003,,2105_003d,04-May-2021 23:17:48,04-May-2021 15:17:48,32.84754,-117.53154,093.3 030.0,093.3,030.0,26.000,26.186,,13.7319,,13.7321,,13.7320,33.6884,,33.6896,33.6796,,33.6815,33.6856,5.9450,,6.2834,6.2773,5.9188,,6.1901,6.1875,6.2324,258.972,273.2281,207.4133,257.831,284.8190,204.5248,205.9691,0.3685,,2.2687,2.1093,2.7700,,1.4584,,25.2298,,25.2229,,,,,,,,,,,13.7282,13.7285,0.0830,273.650,100.985,100.534,,,,,,,,,,,,
CalCOFI,2105SH,003,,2105_003d,04-May-2021 23:17:50,04-May-2021 15:17:50,32.84754,-117.53154,093.3 030.0,093.3,030.0,27.000,27.193,,13.5309,,13.5311,,13.5310,33.6761,,33.6773,33.6521,,33.6540,33.6657,5.7383,,6.0672,6.0617,5.7996,,6.0666,6.0642,6.0630,249.960,263.8070,201.0046,252.632,275.0860,200.8688,200.9367,0.4262,,2.6003,2.4109,2.7383,,1.4584,,25.2613,,25.2427,,,,,,,,,,,13.5271,13.5273,0.0857,270.668,97.067,98.087,,,,,,,,,,,,
CalCOFI,2105SH,003,,2105_003d,04-May-2021 23:17:51,04-May-2021 15:17:51,32.84756,-117.53154,093.3 030.0,093.3,030.0,28.000,28.200,,13.1859,,13.1866,,13.1863,33.6202,,33.6214,33.6060,,33.6079,33.6147,5.7743,,6.1049,6.0992,5.8569,,6.1260,6.1235,6.1114,251.522,265.4399,202.1153,255.119,276.7730,202.6177,202.3665,0.4230,,2.5824,2.3942,2.7113,,1.4584,,25.2878,,25.2766,,,,,,,,,,,13.1820,13.1828,0.0885,268.163,96.953,98.332,,,,,,,,,,,,
CalCOFI,2105SH,003,,2105_003d,04-May-2021 23:17:53,04-May-2021 15:17:53,32.84756,-117.53153,093.3 030.0,093.3,030.0,29.000,29.208,,13.2857,,13.2869,,13.2863,33.6686,,33.6698,33.6688,,33.6707,33.6703,5.7315,,6.0601,6.0546,5.8308,,6.0989,6.0965,6.0756,249.650,263.4829,200.7841,253.975,274.7512,201.8132,201.2987,0.6290,,3.6395,3.4709,2.6841,,1.4584,,25.3052,,25.3051,,,,,,,,,,,13.2817,13.2829,0.0911,266.536,96.460,98.134,,,,,,,,,,,,
CalCOFI,2105SH,003,,2105_003d,04-May-2021 23:17:55,04-May-2021 15:17:55,32.84756,-117.53152,093.3 030.0,093.3,030.0,30.000,30.215,,13.2806,,13.2821,,13.2814,33.6776,,33.6788,33.6730,,33.6749,33.6769,5.7400,,6.0690,6.0635,5.8181,,6.0858,6.0833,6.0734,250.018,263.8676,201.0458,253.423,275.1486,201.4251,201.2355,0.5225,,3.1184,2.9142,2.6476,,1.4584,,25.3133,,25.3094,,,,,,,,,,,13.2765,13.2779,0.0938,265.798,96.598,97.914,,,,,,,,,,,,
CalCOFI,2105SH,003,,2105_003d,04-May-2021 23:17:57,04-May-2021 15:17:57,32.84756,-117.53152,093.3 030.0,093.3,030.0,31.000,31.222,,13.2735,,13.2732,,13.2734,33.6788,,33.6800,33.6758,,33.6777,33.6789,5.7093,,6.0369,6.0315,5.7803,,6.0466,6.0442,6.0379,248.682,262.4710,200.0957,251.775,273.7058,200.2662,200.1810,0.5197,,3.1039,2.8996,2.6101,,1.4584,,25.3156,,25.3134,,,,,,,,,,,13.2693,13.2689,0.0965,265.604,96.069,97.262,31,12.587,,, ,,,,,,,
CalCOFI,2105SH,003,,2105_003d,04-May-2021 23:17:59,04-May-2021 15:17:59,32.84756,-117.53152,093.3 030.0,093.3,030.0,32.000,32.229,,13.2771,,13.2767,,13.2769,33.6820,,33.6832,33.6795,,33.6814,33.6823,5.6735,,5.9994,5.9941,5.7411,,6.0060,6.0037,5.9989,247.124,260.8422,198.9878,250.068,272.0231,199.0658,199.0268,0.4965,,2.9829,2.7783,2.5863,,1.4584,,25.3175,,25.3155,,,,,,,,,,,13.2726,13.2723,0.0992,265.457,95.476,96.612,32,12.819,,,225.07,2.360,0.783,4.47,0.131,0.00,0.53,1.77
CalCOFI,2105SH,003,,2105_003d,04-May-2021 23:18:01,04-May-2021 15:18:01,32.84756,-117.53152,093.3 030.0,093.3,030.0,33.000,33.237,,13.2746,,13.2750,,13.2748,33.6869,,33.6881,33.6843,,33.6862,33.6872,5.6038,,5.9266,5.9214,5.6350,,5.8961,5.8940,5.9077,244.084,257.6642,196.8260,245.446,268.7399,195.8156,196.3208,0.5074,,3.0401,2.8353,2.5586,,1.4584,,25.3217,,25.3197,,,,,,,,,,,13.2700,13.2704,0.1019,265.079,94.301,94.826,,,,,,,,,,,,
CalCOFI,2105SH,003,,2105_003d,04-May-2021 23:18:03,04-May-2021 15:18:03,32.84756,-117.53150,093.3 030.0,093.3,030.0,34.000,34.244,,13.2275,,13.2278,,13.2277,33.6888,,33.6900,33.6831,,33.6850,33.6875,5.3575,,5.6690,5.6646,5.3345,,5.5849,5.5833,5.6240,233.353,246.4460,189.1948,232.354,257.1504,186.6092,187.9020,0.6078,,3.5401,3.3601,2.5253,,1.4584,,25.3327,,25.3282,,,,,,,,,,,13.2228,13.2232,0.1045,264.057,90.070,89.681,,,,,,,,,,,,
CalCOFI,2105SH,003,,2105_003d,04-May-2021 23:18:05,04-May-2021 15:18:05,32.84756,-117.53150,093.3 030.0,093.3,030.0,35.000,35.251,,13.0581,,13.0588,,13.0585,33.6902,,33.6914,33.6761,,33.6780,33.6847,5.2036,,5.5080,5.5041,5.2131,,5.4591,5.4578,5.4810,226.646,239.4345,184.4252,227.061,249.9068,182.8872,183.6562,0.6362,,3.6728,3.5085,2.4998,,1.4584,,25.3676,,25.3566,,,,,,,,,,,13.0533,13.0540,0.1072,260.757,87.180,87.333,,,,,,,,,,,,
CalCOFI,2105SH,003,,2105_003d,04-May-2021 23:18:06,04-May-2021 15:18:06,32.84756,-117.53150,093.3 030.0,093.3,030.0,36.000,36.258,,12.9230,,12.9239,,12.9235,33.6764,,33.6776,33.6636,,33.6655,33.6716,5.0983,,5.3979,5.3943,5.1272,,5.3702,5.3690,5.3817,222.055,234.6351,181.1604,223.315,244.9485,180.2530,180.7067,0.4532,,2.7501,2.5520,2.4724,,1.4584,,25.3837,,25.3737,,,,,,,,,,,12.9181,12.9190,0.1098,259.241,85.171,85.648,,,,,,,,,,,,
CalCOFI,2105SH,003,,2105_003d,04-May-2021 23:18:08,04-May-2021 15:18:08,32.84756,-117.53149,093.3 030.0,093.3,030.0,37.000,37.266,,12.7262,,12.7271,,12.7267,33.6606,,33.6618,33.6483,,33.6502,33.6560,4.9776,,5.2717,5.2684,5.0116,,5.2504,5.2494,5.2589,216.791,229.1321,177.4170,218.272,239.2634,176.7067,177.0619,0.3504,,2.1613,2.0147,2.4261,,1.4584,,25.4103,,25.4005,,,,,,,,,,,12.7212,12.7221,0.1124,256.731,82.809,83.369,,,,,,,,,,,,
CalCOFI,2105SH,003,,2105_003d,04-May-2021 23:18:11,04-May-2021 15:18:11,32.84756,-117.53148,093.3 030.0,093.3,030.0,38.000,38.273,,12.5063,,12.5051,,12.5057,33.6363,,33.6375,33.6205,,33.6224,33.6300,4.7826,,5.0677,5.0650,4.8073,,5.0388,5.0382,5.0516,208.291,220.2462,171.3724,209.370,230.0834,170.4468,170.9096,0.2865,,1.7698,1.6807,2.3559,,1.4584,,25.4342,,25.4222,,,,,,,,,,,12.5013,12.5001,0.1149,254.465,79.189,79.589,,,,,,,,,,,,
CalCOFI,2105SH,003,,2105_003d,04-May-2021 23:18:13,04-May-2021 15:18:13,32.84756,-117.53148,093.3 030.0,093.3,030.0,39.000,39.280,,12.3233,,12.3258,,12.3246,33.6085,,33.6097,33.5976,,33.5995,33.6046,4.5336,,4.8073,4.8053,4.5038,,4.7244,4.7244,4.7649,197.446,208.9088,163.6602,196.152,218.3707,161.1518,162.4060,0.3520,,2.1709,2.0231,2.2931,,1.4584,,25.4479,,25.4390,,,,,,,,,,,12.3182,12.3206,0.1175,253.173,74.768,74.276,,,,,,,,,,,,
CalCOFI,2105SH,003,,2105_003d,04-May-2021 23:18:15,04-May-2021 15:18:15,32.84758,-117.53148,093.3 030.0,093.3,030.0,40.000,40.287,,12.2045,,12.2070,,12.2058,33.6251,,33.6263,33.6151,,33.6170,33.6217,4.2450,,4.5055,4.5044,4.2369,,4.4480,4.4484,4.4764,184.868,195.7598,154.7156,184.520,204.7865,152.9722,153.8439,0.3339,,2.0621,1.9285,2.2262,,1.4584,,25.4835,,25.4753,,,,,,,,,,,12.1993,12.2018,0.1200,249.808,69.842,69.709,,,,,,,,,,,,
CalCOFI,2105SH,003,,2105_003d,04-May-2021 23:18:17,04-May-2021 15:18:17,32.84758,-117.53148,093.3 030.0,093.3,030.0,41.000,41.295,,12.0822,,12.0839,,12.0831,33.6486,,33.6498,33.6349,,33.6368,33.6433,4.0515,,4.3032,4.3026,4.0992,,4.3054,4.3060,4.3043,176.438,186.9471,148.7207,178.517,195.6820,148.7508,148.7358,0.2909,,1.7974,1.7037,2.1604,,1.4584,,25.5250,,25.5141,,,,,,,,,,,12.0769,12.0786,0.1225,245.880,66.498,67.278,,,,,,,,,,,,
CalCOFI,2105SH,003,,2105_003d,04-May-2021 23:18:18,04-May-2021 15:18:18,32.84758,-117.53148,093.3 030.0,093.3,030.0,42.000,42.302,,11.9334,,11.9350,,11.9342,33.6556,,33.6568,33.6434,,33.6453,33.6511,4.0018,,4.2512,4.2507,4.0653,,4.2702,4.2710,4.2609,174.265,184.6754,147.1755,177.035,193.3352,147.7087,147.4421,0.1916,,1.1522,1.1847,2.1090,,1.4584,,25.5586,,25.5488,,,,,,,,,,,11.9281,11.9297,0.1250,242.706,65.479,66.516,,,,,,,,,,,,
CalCOFI,2105SH,003,,2105_003d,04-May-2021 23:18:20,04-May-2021 15:18:20,32.84758,-117.53148,093.3 030.0,093.3,030.0,43.000,43.309,,11.7632,,11.7644,,11.7638,33.6581,,33.6593,33.6439,,33.6458,33.6526,3.9878,,4.2365,4.2361,4.0603,,4.2651,4.2658,4.2510,173.653,184.0356,146.7402,176.809,192.6742,147.5497,147.1450,0.1896,,1.1388,1.1743,2.0566,,1.4584,,25.5924,,25.5811,,,,,,,,,,,11.7577,11.7590,0.1274,239.503,65.019,66.196,,,,,,,,,,,,
CalCOFI,2105SH,003,,2105_003d,04-May-2021 23:18:22,04-May-2021 15:18:22,32.84758,-117.53148,093.3 030.0,093.3,030.0,44.000,44.317,,11.6627,,11.6641,,11.6634,33.6532,,33.6544,33.6436,,33.6455,33.6500,3.9642,,4.2119,4.2115,4.0133,,4.2164,4.2172,4.2144,172.619,182.9547,146.0049,174.759,191.5575,146.1082,146.0566,0.1426,,0.8165,0.9286,2.0003,,1.4584,,25.6073,,25.5995,,,,,,,,,,,11.6571,11.6586,0.1298,238.104,64.494,65.291,,,,,,,,,,,,
CalCOFI,2105SH,003,,2105_003d,04-May-2021 23:18:24,04-May-2021 15:18:24,32.84758,-117.53148,093.3 030.0,093.3,030.0,45.000,45.324,,11.5524,,11.5536,,11.5530,33.6567,,33.6579,33.6437,,33.6456,33.6518,3.8993,,4.1440,4.1438,3.9681,,4.1696,4.1705,4.1572,169.791,179.9983,143.9939,172.790,188.5033,144.7236,144.3588,0.1205,,0.6613,0.8131,1.9574,,1.4584,,25.6303,,25.6200,,,,,,,,,,,11.5468,11.5480,0.1322,235.929,63.292,64.406,,,,,,,,,,,,
CalCOFI,2105SH,003,,2105_003d,04-May-2021 23:18:26,04-May-2021 15:18:26,32.84758,-117.53148,093.3 030.0,093.3,030.0,46.000,46.331,,11.3969,,11.3979,,11.3974,33.6575,,33.6587,33.6467,,33.6486,33.6537,3.8649,,4.1080,4.1080,3.9151,,4.1147,4.1157,4.1119,168.290,178.4292,142.9265,170.474,186.8822,143.0949,143.0107,0.0936,,0.4692,0.6725,1.9186,,1.4584,,25.6595,,25.6509,,,,,,,,,,,11.3912,11.3922,0.1346,233.166,62.529,63.337,,,,,,,,,,,,
CalCOFI,2105SH,003,,2105_003d,04-May-2021 23:18:28,04-May-2021 15:18:28,32.84758,-117.53147,093.3 030.0,093.3,030.0,47.000,47.339,,11.2993,,11.2998,,11.2996,33.6572,,33.6584,33.6472,,33.6491,33.6538,3.7859,,4.0254,4.0256,3.8379,,4.0347,4.0358,4.0307,164.845,174.8278,140.4766,167.109,183.1616,140.7287,140.6027,0.0802,,0.3722,0.6024,1.8871,,1.4584,,25.6770,,25.6691,,,,,,,,,,,11.2934,11.2940,0.1369,231.515,61.123,61.959,,,,,,,,,,,,
CalCOFI,2105SH,003,,2105_003d,04-May-2021 23:18:30,04-May-2021 15:18:30,32.84758,-117.53146,093.3 030.0,093.3,030.0,48.000,48.346,,11.2357,,11.2366,,11.2362,33.6613,,33.6625,33.6543,,33.6562,33.6594,3.7400,,3.9774,3.9777,3.7868,,3.9818,3.9830,3.9804,162.844,172.7359,139.0536,164.882,181.0005,139.1626,139.1081,0.0754,,0.3373,0.5774,1.8598,,1.4584,,25.6918,,25.6862,,,,,,,,,,,11.2298,11.2307,0.1392,230.133,60.302,61.054,,,,,,,,,,,,
CalCOFI,2105SH,003,,2105_003d,04-May-2021 23:18:32,04-May-2021 15:18:32,32.84760,-117.53146,093.3 030.0,093.3,030.0,49.000,49.353,,11.2050,,11.2050,,11.2050,33.6649,,33.6661,33.6609,,33.6628,33.6645,3.6638,,3.8977,3.8982,3.6935,,3.8851,3.8865,3.8924,159.526,169.2673,136.6941,160.821,177.4170,136.3069,136.5005,0.0701,,0.2985,0.5497,1.8296,,1.4584,,25.7002,,25.6970,,,,,,,,,,,11.1990,11.1990,0.1416,229.355,59.036,59.514,,,,,,,,,,,,
CalCOFI,2105SH,003,,2105_003d,04-May-2021 23:18:34,04-May-2021 15:18:34,32.84760,-117.53146,093.3 030.0,093.3,030.0,50.000,50.361,,11.1819,,11.1820,,11.1820,33.6722,,33.6734,33.6678,,33.6697,33.6716,3.5927,,3.8233,3.8241,3.5984,,3.7866,3.7882,3.8062,156.430,166.0307,134.4924,156.677,174.0733,133.3928,133.9426,0.0662,,0.2700,0.5293,1.8094,,1.4584,,25.7100,,25.7066,,,,,,,,,,,11.1758,11.1758,0.1439,228.444,57.865,57.955,50,11.066,,,156.96,0.048,0.071,21.74,0.00,0.00,1.77,21.74
CalCOFI,2105SH,003,,2105_003d,04-May-2021 23:18:35,04-May-2021 15:18:35,32.84760,-117.53146,093.3 030.0,093.3,030.0,51.000,51.368,,11.1634,,11.1634,,11.1634,33.6758,,33.6770,33.6715,,33.6734,33.6752,3.5012,,3.7277,3.7287,3.5282,,3.7139,3.7156,3.7222,152.445,161.8648,131.6586,153.620,169.7695,131.2431,131.4509,0.0696,,0.2949,0.5470,1.7937,,1.4584,,25.7162,,25.7128,,,,,,,,,,,11.1572,11.1571,0.1462,227.877,56.370,56.803,,,,,,,,,,,,
CalCOFI,2105SH,003,,2105_003d,04-May-2021 23:18:37,04-May-2021 15:18:37,32.84760,-117.53146,093.3 030.0,093.3,030.0,52.000,52.375,,11.1431,,11.1433,,11.1432,33.6924,,33.6936,33.6902,,33.6921,33.6929,3.4441,,3.6679,3.6691,3.4943,,3.6788,3.6806,3.6749,149.955,159.2618,129.8879,152.139,167.0803,130.2017,130.0448,0.0710,,0.3051,0.5544,1.7734,,1.4584,,25.7328,,25.7311,,,,,,,,,,,11.1367,11.1369,0.1485,226.321,55.432,56.239,,,,,,,,,,,,
CalCOFI,2105SH,003,,2105_003d,04-May-2021 23:18:39,04-May-2021 15:18:39,32.84760,-117.53146,093.3 030.0,093.3,030.0,53.000,53.383,,11.1460,,11.1457,,11.1459,33.7016,,33.7028,33.6999,,33.7018,33.7023,3.3948,,3.6164,3.6177,3.4392,,3.6217,3.6236,3.6207,147.806,157.0152,128.3596,149.740,164.7594,128.5147,128.4372,0.0678,,0.2817,0.5376,1.7450,,1.4584,,25.7394,,25.7382,,,,,,,,,,,11.1395,11.1392,0.1507,225.717,54.645,55.359,,,,,,,,,,,,
CalCOFI,2105SH,003,,2105_003d,04-May-2021 23:18:41,04-May-2021 15:18:41,32.84760,-117.53146,093.3 030.0,093.3,030.0,54.000,54.390,,11.1302,,11.1306,,11.1304,33.7092,,33.7104,33.7072,,33.7091,33.7098,3.3290,,3.5476,3.5491,3.3629,,3.5427,3.5447,3.5469,144.940,154.0191,126.3215,146.417,161.6641,126.1779,126.2497,0.0683,,0.2854,0.5403,1.7215,,1.4584,,25.7482,,25.7466,,,,,,,,,,,11.1236,11.1240,0.1530,224.903,53.571,54.116,,,,,,,,,,,,